Regional Weather Roundup
Issued by NWS Sioux Falls, SD

Home | Current Version | Previous Version | Graphics & Text | Print | Product List | Glossary Off
Versions: 1 2 3 4 5 6 7 8 9 10 11 12 13 14 15 16 17 18 19 20 21 22 23 24 25 26 27 28 29 30 31 32 33 34 35 36 37 38 39 40 41 42 43 44 45 46 47 48 49 50

408
ASUS43 KFSD 190510
RWRFSD

WEATHER ROUNDUP FOR SE SOUTH DAKOTA/SW MINNESOTA/NW IOWA
NATIONAL WEATHER SERVICE SIOUX FALLS SD
1100 PM CST WED JAN 18 2017

NOTE: "FAIR" INDICATES FEW OR NO CLOUDS BELOW 12,000 FEET WITH NO
SIGNIFICANT WEATHER AND OR OBSTRUCTIONS TO VISIBILITY.


SDZ038>040-050-052>070-190600-
SOUTHEAST SOUTH DAKOTA

CITY           SKY/WX    TMP DP  RH WIND       PRES   REMARKS
BROOKINGS      CLOUDY    34  33  96 S5        29.74R WCI  30
CHAMBERLAIN    CLOUDY    32  26  79 S8        29.66S WCI  25
HURON          CLOUDY    33  33 100 S12       29.68S WCI  24
MADISON          N/A     32  32 100 S7          N/A  WCI  26
MITCHELL       CLOUDY    36  33  89 S10       29.72R
SIOUX FALLS    CLEAR     37  36  96 S12       29.77R
WINNER         FAIR      40  26  57 SW8       29.65R
YANKTON        CLEAR     39  36  87 S6        29.76S
$$

MNZ071-072-080-081-089-090-097-098-190600-
SOUTHWEST MINNESOTA

CITY           SKY/WX    TMP DP  RH WIND       PRES   REMARKS
FAIRMONT       CLEAR     35  33  92 S12       29.84S WCI  27
JACKSON        CLEAR     34  32  93 S14       29.81F WCI  24
LUVERNE        CLEAR     36  32  87 S8        29.79R
MARSHALL       CLEAR     39  36  89 SW8G16    29.75R
MONTEVIDEO       N/A     28  28 100 S6        29.76S FOG     WCI  22
PIPESTONE      CLEAR     37  36  93 S15       29.75S
REDWOOD FALLS  CLEAR     32  29  88 S8        29.77S WCI  25
TRACY          CLEAR     40  37  88 SW23G29   29.75R
WINDOM           N/A     37  36  93 S12       29.80R
WORTHINGTON    CLEAR     38  34  85 S21       29.79S
$$

IAZ001>003-012>014-020>022-031-032-NEZ013-014-SDZ071-190600-
NORTHWEST IOWA

CITY           SKY/WX    TMP DP  RH WIND       PRES   REMARKS
CHEROKEE       CLEAR     36  35  96 S8        29.85R
DENISON        CLEAR     37  36  93 VRB5      29.86F
ESTHERVILLE    CLEAR     34  34 100 S15       29.82F WCI  24
LE MARS        CLEAR     39  36  87 S14       29.83S
ORANGE CITY    CLEAR     36  36 100 S10       29.82S
SHELDON        CLEAR     37  37 100 S16       29.80S
SIOUX CITY     CLEAR     36  33  89 E7        29.84R
SPENCER        CLEAR     35  33  92 S7        29.84R WCI  29
STORM LAKE     CLEAR     36  34  93 S13       29.85S
$$

ABBREVIATIONS USED IN REMARKS
   TC - TEMPERATURE IN CELSIUS
  WCI - WIND CHILL INDEX
   HX - HEAT INDEX
  VSB - VISIBILITY





USA.gov is the U.S. government's official web portal to all federal, state and local government web resources and services.